Participated 5 times
Between 1964 and 1969
Cees Haast, Holland
Tour de France 2026 starts from Barcelona, Spain in

Stats and Facts from
Tour de France.

2026   2025   2024   2023  2022  2021  2020  2019   2018  2017   2016   2015  2014  2013   2012   2011  2010   2009   2008   2007   2006   2005   2004   2003   2002   2001   2000   1999   1998   1997  1996   1995   1994   1993   1992  1991   1990   1989   1988   1987   1986   1985   1984   1983  1982  1981   1980   1979  1978  1977   1976  1975  1974  1973   1972   1971   1970  1969   1968   1967   1966   1965  1964  1963   1962   1961   1960   1959   1958   1957  1956   1955   1954   1953   1952  1951  1950  1949   1948  1947  1939   1938   1937   1936   1935   1934   1933  1932   1931   1930  1929   1928   1927   1926  1925  1924  1923   1922   1921   1920   1919  1914   1913   1912   1911   1910  1909   1908   1907   1906  1905  1904   1903 

Tourstats
Sitemap

After stage 21 - 2025:
 16451 starters.
  5463 different riders.
  689 teams.
  2398 stages.
  470 restdays.
  466506.50 km.
  5925 abandoned riders.

Click map for 1991 route.
Facts from Tour de France 1991
  |   Stages.  |   Stage winners.  |   Days in jerseys.  |   Teams.  |   All riders.  |   All riders by age.  |   All riders from.  |  

  |   Rookies.  |   Withdrawls.  |   Average speed.  |   GC.  |   Polka  |   Green  |   White  |   Summits. (In tour)  |   Miscellaneous.  |  

Stage 18 on July 24th. 1991
Pick a stage:  Pro  1  2  3  4  5  6  7  8  9  10  11  12  13  14  15  16  17  18  19  20  21  22  

After stage 18:    Miguel Indurain  
  Bourg-d´OisansMorzine-Avoriaz | Dist: 255.00km. | Winner: Thierry Claveyrolat

Podium
3  Montae de l'Arly Thomas Wegmüllerafter147.00 km.

1  Col de l'Aravis - Thônes Thierry Claveyrolatafter160.00 km.

1  Col de la Colombiere  Thierry Claveyrolatafter185.00 km.

HC  Côte de Chatillon sur Cluses Thierry Claveyrolatafter195.00 km.

3  Col de Joux-Plane Thierry Claveyrolatafter212.00 km.


Average speed for all riders in stage:  33,051 km./hr.

1
 Thierry Claveyrolat  R.M.O.-Mavic-Liberia07h 26' 47"=34,245  km/h

2
 Thierry Bourguignon  Toshiba07h 26' 53"+  00:00:06 =34,237  km/h

3
 Claudio Chiappucci  Carrera Jeans07h 27' 17"+  00:00:30 =34,207  km/h

4  Uwe Ampler  Histor-Sigma07h 27' 17"+  00:00:30 =34,207  km/h

5  Gert-Jan Theunisse  TVM-Sanyo07h 27' 17"+  00:00:30 =34,207  km/h

6  Éric Caritoux  R.M.O.-Mavic-Liberia07h 27' 17"+  00:00:30 =34,207  km/h

7  Gianni Bugno  Gatorade-Chateau d'Ax07h 27' 17"+  00:00:30 =34,207  km/h

8  Steven Rooks  Buckler07h 27' 17"+  00:00:30 =34,207  km/h

9  Didier Virvaleix  Histor-Sigma07h 27' 17"+  00:00:30 =34,207  km/h

10  Gérard Rué  Helvetia07h 27' 17"+  00:00:30 =34,207  km/h

11  Miguel Indurain  Banesto07h 27' 17"+  00:00:30 =34,207  km/h

12  Luc Leblanc  Castorama07h 27' 17"+  00:00:30 =34,207  km/h

13  Charly Mottet  R.M.O.-Mavic-Liberia07h 27' 17"+  00:00:30 =34,207  km/h

14  Álvaro Mejía  Ryalcao-Postobon07h 27' 17"+  00:00:30 =34,207  km/h

15  Pedro Delgado  Banesto07h 27' 17"+  00:00:30 =34,207  km/h

16  Abelardo Rondón  Banesto07h 27' 25"+  00:00:38 =34,196  km/h

17  Laurent Fignon  Castorama07h 27' 29"+  00:00:42 =34,191  km/h

18  Jerôme Simon  Z07h 27' 35"+  00:00:48 =34,184  km/h

19  Andy Hampsten  Motorola07h 27' 35"+  00:00:48 =34,184  km/h

20  Roberto Conti  Ariostea07h 27' 50"+  00:01:03 =34,164  km/h

21  Jesús Montoya  Amaya Seguros07h 28' 03"+  00:01:16 =34,148  km/h

22  Eduardo Chozas  O.N.C.E.07h 28' 59"+  00:02:12 =34,077  km/h

23  Javier Murguialday  Amaya Seguros07h 28' 59"+  00:02:12 =34,077  km/h

24  Jean-Claude Bagot  Castorama07h 28' 59"+  00:02:12 =34,077  km/h

25  Pello Ruiz Cabestany  Clas-Cajastur07h 29' 28"+  00:02:41 =34,040  km/h

26  Alberto Camargo  Ryalcao-Postobon07h 29' 28"+  00:02:41 =34,040  km/h

27  Ronan Pensec  Amaya Seguros07h 29' 28"+  00:02:41 =34,040  km/h

28  Frédéric Vichot  Castorama07h 29' 51"+  00:03:04 =34,011  km/h

29  Jean-François Bernard  Banesto07h 29' 52"+  00:03:05 =34,010  km/h

30  Dimitri Konychev  TVM-Sanyo07h 30' 48"+  00:04:01 =33,940  km/h

31  Denis Roux  Toshiba07h 31' 41"+  00:04:54 =33,873  km/h

32  Francisco Espinosa  Clas-Cajastur07h 32' 03"+  00:05:16 =33,846  km/h

33  Mauro Ribeiro  R.M.O.-Mavic-Liberia07h 32' 11"+  00:05:24 =33,836  km/h

34  Dominik Krieger  Helvetia07h 32' 16"+  00:05:29 =33,830  km/h

35  Viatcheslav Ekimov  Panasonic-Sportlife07h 32' 21"+  00:05:34 =33,823  km/h

36  Laurent Pillon  Tonton Tapis-Corona07h 32' 21"+  00:05:34 =33,823  km/h

37  Johan Bruyneel  Lotto-Superclub-MBK07h 32' 21"+  00:05:34 =33,823  km/h

38  Philippe Louviot  Toshiba07h 32' 21"+  00:05:34 =33,823  km/h

39  Alessandro Giannelli  Carrera Jeans07h 32' 21"+  00:05:34 =33,823  km/h

40  Laurent Jalabert  Toshiba07h 32' 21"+  00:05:34 =33,823  km/h

41  Patrice Esnault  Amaya Seguros07h 32' 21"+  00:05:34 =33,823  km/h

42  Moreno Argentin  Ariostea07h 32' 27"+  00:05:40 =33,816  km/h

43  Fabrice Philipot  Banesto07h 32' 27"+  00:05:40 =33,816  km/h

44  Gerrit De Vries  Buckler07h 32' 27"+  00:05:40 =33,816  km/h

45  Gilles Delion  Helvetia07h 32' 27"+  00:05:40 =33,816  km/h

46  Pascal Lino  R.M.O.-Mavic-Liberia07h 32' 27"+  00:05:40 =33,816  km/h

47  Valerio Tebaldi  Gatorade-Chateau d'Ax07h 32' 27"+  00:05:40 =33,816  km/h

48  Marco Giovannetti  Gatorade-Chateau d'Ax07h 32' 27"+  00:05:40 =33,816  km/h

49  Maurizio Fondriest  Panasonic-Sportlife07h 32' 27"+  00:05:40 =33,816  km/h

50  Anselmo Fuerte  O.N.C.E.07h 32' 27"+  00:05:40 =33,816  km/h

51  Bruno Cornillet  Z07h 32' 27"+  00:05:40 =33,816  km/h

52  Bruno Cenghialta  Ariostea07h 33' 27"+  00:06:40 =33,741  km/h

53  Phil Anderson  Motorola07h 33' 47"+  00:07:00 =33,717  km/h

54  Francisco Mauleón  Clas-Cajastur07h 34' 33"+  00:07:46 =33,660  km/h

55  Henry Cárdenas  Ryalcao-Postobon07h 34' 33"+  00:07:46 =33,660  km/h

56  Gerardo Moncada  Ryalcao-Postobon07h 34' 33"+  00:07:46 =33,660  km/h

57  Luis Herrera  Ryalcao-Postobon07h 34' 33"+  00:07:46 =33,660  km/h

58  Robert Millar  Z07h 34' 39"+  00:07:52 =33,652  km/h

59  Greg LeMond  Z07h 34' 39"+  00:07:52 =33,652  km/h

60  Frank Van Den Abeele  Lotto-Superclub-MBK07h 34' 39"+  00:07:52 =33,652  km/h

61  Guy Nulens  Panasonic-Sportlife07h 36' 24"+  00:09:37 =33,523  km/h

62  Rolf Järmann  Weinmann-Eddy Merckx07h 36' 39"+  00:09:52 =33,505  km/h

63  Dominique Arnould  Castorama07h 36' 49"+  00:10:02 =33,493  km/h

64  Patrick Jacobs  Tonton Tapis-Corona07h 37' 23"+  00:10:36 =33,451  km/h

65  Guido Winterberg  Helvetia07h 37' 50"+  00:11:03 =33,418  km/h

66  Alberto Elli  Ariostea07h 38' 37"+  00:11:50 =33,361  km/h

67  Óscar Vargas  Ryalcao-Postobon07h 38' 45"+  00:11:58 =33,351  km/h

68  Arsenio Chaparro  Ryalcao-Postobon07h 38' 45"+  00:11:58 =33,351  km/h

69  Alberto Leanizbarrutia  Clas-Cajastur07h 39' 21"+  00:12:34 =33,308  km/h

70  Dominique Arnaud  Banesto07h 39' 30"+  00:12:43 =33,297  km/h

71  Philippe Casado  Z07h 41' 48"+  00:15:01 =33,131  km/h

72  Enrico Zaina  Carrera Jeans07h 45' 25"+  00:18:38 =32,874  km/h

73  Bjarne Riis  Castorama07h 45' 25"+  00:18:38 =32,874  km/h

74  Olaf Lurvik  Toshiba07h 45' 25"+  00:18:38 =32,874  km/h

75  Marc van Orsouw  Panasonic-Sportlife07h 45' 25"+  00:18:38 =32,874  km/h

76  Peter Stevenhaagen  Helvetia07h 45' 25"+  00:18:38 =32,874  km/h

77  Wilfried Peeters  Histor-Sigma07h 45' 25"+  00:18:38 =32,874  km/h

78  Jesus Rodriguez Magro  Banesto07h 45' 25"+  00:18:38 =32,874  km/h

79  Guido Bontempi  Carrera Jeans07h 45' 25"+  00:18:38 =32,874  km/h

80  Eric Van Lancker  Panasonic-Sportlife07h 45' 25"+  00:18:38 =32,874  km/h

81  Marc Sergeant  Panasonic-Sportlife07h 45' 25"+  00:18:38 =32,874  km/h

82  Pascal Simon  Castorama07h 45' 25"+  00:18:38 =32,874  km/h

83  Manuel Dominguez  Clas-Cajastur07h 45' 25"+  00:18:38 =32,874  km/h

84  Herminio Diaz Zabala  O.N.C.E.07h 45' 25"+  00:18:38 =32,874  km/h

85  Rolf Gölz  Ariostea07h 45' 25"+  00:18:38 =32,874  km/h

86  Miguel Angel Martinez  O.N.C.E.07h 45' 25"+  00:18:38 =32,874  km/h

87  François Lemarchand  Z07h 45' 25"+  00:18:38 =32,874  km/h

88  Andreas Kappes  Histor-Sigma07h 45' 25"+  00:18:38 =32,874  km/h

89  Melchor Mauri  O.N.C.E.07h 45' 25"+  00:18:38 =32,874  km/h

90  Marino Lejarreta  O.N.C.E.07h 45' 25"+  00:18:38 =32,874  km/h

91  Stephen Hodge  O.N.C.E.07h 45' 25"+  00:18:38 =32,874  km/h

92  Éric Boyer  Z07h 45' 25"+  00:18:38 =32,874  km/h

93  Laurence Roche  Tonton Tapis-Corona07h 45' 25"+  00:18:38 =32,874  km/h

94  Frans Maassen  Buckler07h 45' 25"+  00:18:38 =32,874  km/h

95  Edwig Van Hooydonck  Buckler07h 45' 25"+  00:18:38 =32,874  km/h

96  Iñaki Gastón  Clas-Cajastur07h 45' 25"+  00:18:38 =32,874  km/h

97  Reynel Montoya  Ryalcao-Postobon07h 46' 34"+  00:19:47 =32,793  km/h

98  Gilbert Duclos-Lassalle  Z07h 49' 40"+  00:22:53 =32,576  km/h

99  Henri Abadie  Toshiba07h 49' 40"+  00:22:53 =32,576  km/h

100  Javier Lukin  Banesto07h 51' 55"+  00:25:08 =32,421  km/h

101  Michel Dernies  Weinmann-Eddy Merckx07h 52' 57"+  00:26:10 =32,350  km/h

102  Etienne De Wilde  Histor-Sigma07h 52' 57"+  00:26:10 =32,350  km/h

103  Marino Alonso  Banesto07h 54' 31"+  00:27:44 =32,243  km/h

104  Patrick Verschueren  Lotto-Superclub-MBK07h 54' 31"+  00:27:44 =32,243  km/h

105  Brian Holm  Histor-Sigma07h 54' 31"+  00:27:44 =32,243  km/h

106  Enrique Guerrikagoitia  Amaya Seguros07h 54' 31"+  00:27:44 =32,243  km/h

107  Jelle Nijdam  Buckler07h 54' 31"+  00:27:44 =32,243  km/h

108  Thomas Barth  TVM-Sanyo07h 54' 31"+  00:27:44 =32,243  km/h

109  Olaf Ludwig  Panasonic-Sportlife07h 54' 31"+  00:27:44 =32,243  km/h

110  Roberto Gusmeroli  Gatorade-Chateau d'Ax07h 54' 31"+  00:27:44 =32,243  km/h

111  Dag Otto Lauritzen  Motorola07h 54' 31"+  00:27:44 =32,243  km/h

112  Thierry Laurent  R.M.O.-Mavic-Liberia07h 54' 31"+  00:27:44 =32,243  km/h

113  Giancarlo Perini  Carrera Jeans07h 54' 31"+  00:27:44 =32,243  km/h

114  José-Manuel Oliveira  Clas-Cajastur07h 54' 31"+  00:27:44 =32,243  km/h

115  Christophe Lavainne  Castorama07h 54' 31"+  00:27:44 =32,243  km/h

116  Jean-Claude Colotti  Tonton Tapis-Corona07h 54' 31"+  00:27:44 =32,243  km/h

117  Andrew Bishop  Motorola07h 54' 31"+  00:27:44 =32,243  km/h

118  Javier Duch  Clas-Cajastur07h 54' 31"+  00:27:44 =32,243  km/h

119  Mauro Gianetti  Helvetia07h 54' 31"+  00:27:44 =32,243  km/h

120  Mauro-Antonio Santaromita  Gatorade-Chateau d'Ax07h 54' 31"+  00:27:44 =32,243  km/h

121  Roland Le Clerc  Amaya Seguros07h 54' 31"+  00:27:44 =32,243  km/h

122  Thierry Marie  Castorama07h 54' 31"+  00:27:44 =32,243  km/h

123  Michel Vermote  R.M.O.-Mavic-Liberia07h 54' 31"+  00:27:44 =32,243  km/h

124  Dimitri Zhdanov  Panasonic-Sportlife07h 54' 31"+  00:27:44 =32,243  km/h

125  Carlos Jaramillo  Ryalcao-Postobon07h 54' 31"+  00:27:44 =32,243  km/h

126  Vasily Zhdanov  TVM-Sanyo07h 54' 31"+  00:27:44 =32,243  km/h

127  Jure Pavlič  Carrera Jeans07h 54' 31"+  00:27:44 =32,243  km/h

128  Ron Kiefel  Motorola07h 54' 31"+  00:27:44 =32,243  km/h

129  Jan Siemons  TVM-Sanyo07h 54' 31"+  00:27:44 =32,243  km/h

130  Steve Bauer  Motorola07h 54' 31"+  00:27:44 =32,243  km/h

131  Djamolidine Abduzhaparov  Carrera Jeans07h 54' 31"+  00:27:44 =32,243  km/h

132  Pascal Lance  Toshiba07h 54' 31"+  00:27:44 =32,243  km/h

133  Francis Moreau  Tonton Tapis-Corona07h 54' 31"+  00:27:44 =32,243  km/h

134  Pascal Richard  Helvetia07h 54' 31"+  00:27:44 =32,243  km/h

135  Erich Mächler  Carrera Jeans07h 54' 31"+  00:27:44 =32,243  km/h

136  Jan Schur  Gatorade-Chateau d'Ax07h 54' 31"+  00:27:44 =32,243  km/h

137  Urs Zimmermann  Motorola07h 54' 31"+  00:27:44 =32,243  km/h

138  Vladimir Pulnikov  Carrera Jeans07h 54' 31"+  00:27:44 =32,243  km/h

139  Rob Harmeling  TVM-Sanyo07h 54' 31"+  00:27:44 =32,243  km/h

140  Rudy Verdonck  Weinmann-Eddy Merckx07h 54' 31"+  00:27:44 =32,243  km/h

141  Marc Madiot  R.M.O.-Mavic-Liberia07h 54' 31"+  00:27:44 =32,243  km/h

142  Henri Manders  Helvetia07h 54' 31"+  00:27:44 =32,243  km/h

143  Per Pedersen  Amaya Seguros07h 54' 31"+  00:27:44 =32,243  km/h

144  Werner Stutz  Weinmann-Eddy Merckx07h 54' 31"+  00:27:44 =32,243  km/h

145  Christian Chaubet  Toshiba07h 54' 31"+  00:27:44 =32,243  km/h

146  Gerrit Solleveld  Buckler07h 54' 31"+  00:27:44 =32,243  km/h

147  Rik  Van Slycke  Lotto-Superclub-MBK07h 54' 31"+  00:27:44 =32,243  km/h

148  Sergei Uslamin  TVM-Sanyo07h 54' 31"+  00:27:44 =32,243  km/h

149  Hendrik Redant  Lotto-Superclub-MBK07h 54' 31"+  00:27:44 =32,243  km/h

150  Peter De Clercq  Lotto-Superclub-MBK07h 54' 31"+  00:27:44 =32,243  km/h

151  Davide Cassani  Ariostea07h 54' 47"+  00:28:00 =32,225  km/h

152  Eric Vanderaerden  Buckler07h 55' 11"+  00:28:24 =32,198  km/h

153  Thomas Wegmüller  Weinmann-Eddy Merckx07h 55' 19"+  00:28:32 =32,189  km/h

154  Alfred Achermann  Weinmann-Eddy Merckx07h 55' 19"+  00:28:32 =32,189  km/h

155  Stefano Zanatta  Gatorade-Chateau d'Ax07h 56' 04"+  00:29:17 =32,138  km/h

156  Guiseppe Calcaterra  Gatorade-Chateau d'Ax07h 56' 06"+  00:29:19 =32,136  km/h

157  Eddy Schurer  TVM-Sanyo07h 56' 54"+  00:30:07 =32,082  km/h

158  Ludwig Willems  Weinmann-Eddy Merckx07h 56' 54"+  00:30:07 =32,082  km/h

159  Toine  Poels  Buckler07h 57' 06"+  00:30:19 =32,069  km/h

160  Wiebren Veenstra  Buckler07h 57' 25"+  00:30:38 =32,047  km/h


Withdrawls: 3
 RiderTeamReason
6   Atle Kvå lsvoll ZDid not start
49   Johnny Weltz O.N.C.E.Did not finish
214   Nico  Emonds Clas-CajasturDid not finish
Todays birthdays.

1888 • Giuseppe Contesini
1911 • Edmond Pages
1935 • Eddy Pauwels
1940 • Julien Haelterman
1958 • Luc Colijn
1962 • Jean-François Bernard
1984 • Yann Huguet
1993 • Owain Doull

 

Optimized for Chrome - Edge
and Opera browsers.